Weather History for Charlottetown, PE

Change the Weather History Date:

Thursday, May 16, 2013

  Actual Average Record
Temperature  
Mean Temperature 47 °F -  
Max Temperature 52 °F 62 °F 75 °F (2014)
Min Temperature 42 °F 44 °F 32 °F (2003)
Degree Days  
Heating Degree Days 18    
Moisture  
Dew Point 43 °F    
Average Humidity 83    
Maximum Humidity 100    
Minimum Humidity 57    
Precipitation  
Precipitation 0.02 in 0.12 in - ()
Sea Level Pressure  
Sea Level Pressure 29.73 in    
Wind  
Wind Speed 10 mph ()    
Max Wind Speed 20 mph    
Max Gust Speed 25 mph    
Visibility 14.8 miles    
Events Rain    
Averages and records for this station are not official NWS values.
T = Trace of Precipitation, MM = Missing Value Source: Averaged Metar Reports

Daily Weather History Graph

Daily Weather History Graph

Search for Another Location

Airport:

Trip Planner

Search our weather history database for the weather conditions in past years. The results will help you decide how hot, cold, wet, or windy it might be!

Date:

Astronomy

May. 16, 2013 Rise Set
Actual Time 5:38 AM ADT 8:40 PM ADT
Civil Twilight 5:02 AM ADT 9:16 PM ADT
Nautical Twilight 4:16 AM ADT 10:02 PM ADT
Astronomical Twilight 3:21 AM ADT 10:57 PM ADT
Moon 11:13 AM ADT (5/16) 12:53 AM ADT (5/16)
Length of Visible Light 16h 13m
Length of Day
15h 02m
Waxing Crescent, 35% of the Moon is Illuminated
May 16
Waxing Crescent
May 18
First Quarter
May 25
Full
May 31
Last Quarter
Jun 8
New

Hourly Weather History & Observations

Time (ADT) Temp. Windchill Dew Point Humidity Pressure Visibility Wind Dir Wind Speed Gust Speed Precip Events Conditions
12:00 AM 46.4 °F 41.9 °F 32.0 °F 57% 29.90 in 15.0 mi South 9.2 mph - N/A   Partly Cloudy
1:00 AM 44.6 °F 39.2 °F 35.6 °F 71% 29.89 in 15.0 mi South 10.4 mph - N/A   Partly Cloudy
2:00 AM 42.8 °F 37.0 °F 37.4 °F 81% 29.88 in 15.0 mi South 10.4 mph - N/A   Partly Cloudy
3:00 AM 44 °F - 39 °F 77% 29.85 in 15 mi South 11.5 mph - -   Clear
3:00 AM 44.6 °F 38.8 °F 39.2 °F 81% 29.85 in 15.0 mi South 11.5 mph - N/A   Scattered Clouds
4:00 AM 44.6 °F 39.7 °F 39.2 °F 81% 29.82 in 15.0 mi SSE 9.2 mph - N/A   Scattered Clouds
5:00 AM 44.6 °F 39.7 °F 35.6 °F 71% 29.81 in 15.0 mi South 9.2 mph - N/A   Mostly Cloudy
6:00 AM 44.6 °F 39.2 °F 37.4 °F 76% 29.82 in 15.0 mi South 10.4 mph - N/A   Mostly Cloudy
7:00 AM 44.6 °F 39.7 °F 39.2 °F 81% 29.81 in 15.0 mi South 9.2 mph - N/A   Overcast
7:48 AM 46.4 °F 39.0 °F 37.4 °F 71% 29.80 in 15.0 mi SSW 19.6 mph 25.3 mph N/A Rain Light Rain
8:00 AM 46.4 °F 40.1 °F 37.4 °F 71% 29.79 in 15.0 mi South 15.0 mph 25.3 mph N/A Rain Light Rain
9:00 AM 46 °F - 39 °F 67% 29.79 in 15 mi SSE 15.0 mph - - Rain Light Rain
9:00 AM 46.4 °F 39.5 °F 39.2 °F 76% 29.79 in 15.0 mi SSE 17.3 mph - N/A Rain Light Rain
10:00 AM 44.6 °F 38.4 °F 41.0 °F 87% 29.75 in 10.0 mi SE 12.7 mph 20.7 mph N/A Rain Light Rain
10:43 AM 44.6 °F 38.4 °F 42.8 °F 93% 29.73 in 15.0 mi ESE 12.7 mph 19.6 mph N/A   Mostly Cloudy
11:00 AM 46.4 °F 40.1 °F 41.0 °F 81% 29.72 in 15.0 mi SE 15.0 mph - N/A   Overcast
12:00 PM 46.4 °F 41.1 °F 42.8 °F 87% 29.69 in 15.0 mi SE 11.5 mph 18.4 mph N/A   Overcast
1:00 PM 48.2 °F - 42.8 °F 82% 29.67 in 15.0 mi SE 15.0 mph - N/A   Overcast
2:00 PM 50.0 °F - 46.4 °F 87% 29.66 in 15.0 mi SSE 16.1 mph 24.2 mph N/A   Overcast
2:45 PM 50.0 °F - 46.4 °F 87% 29.64 in 15.0 mi SSE 17.3 mph 23.0 mph N/A   Overcast
3:00 PM 50 °F - 47 °F 86% 29.65 in 15 mi SSE 15.0 mph - -   Partly Cloudy
3:00 PM 50.0 °F - 46.4 °F 87% 29.65 in 15.0 mi SSE 13.8 mph 24.2 mph N/A   Overcast
4:00 PM 50.0 °F - 46.4 °F 87% 29.65 in 15.0 mi SSE 12.7 mph - N/A   Overcast
5:00 PM 51.8 °F - 48.2 °F 88% 29.64 in 15.0 mi South 11.5 mph - N/A   Overcast
5:22 PM 51.8 °F - 48.2 °F 88% 29.64 in 15.0 mi South 10.4 mph - N/A   Overcast
6:00 PM 51.8 °F - 48.2 °F 88% 29.64 in 15.0 mi South 8.1 mph - N/A   Mostly Cloudy
7:00 PM 51.8 °F - 48.2 °F 88% 29.62 in 15.0 mi South 9.2 mph - N/A   Scattered Clouds
8:00 PM 51.8 °F - 48.2 °F 88% 29.64 in 15.0 mi South 6.9 mph - N/A   Mostly Cloudy
9:00 PM 49 °F - 47 °F 92% 29.65 in 15 mi SSW 4.6 mph - -   Scattered Clouds
9:00 PM 48.2 °F - 48.2 °F 100% 29.64 in 15.0 mi South 4.6 mph - N/A   Scattered Clouds
10:00 PM 48.2 °F - 48.2 °F 100% 29.66 in 15.0 mi SSW 5.8 mph - N/A   Mostly Cloudy
11:00 PM 48.2 °F - 46.4 °F 93% 29.64 in 15.0 mi SE 6.9 mph - N/A   Overcast